Regional Weather Roundup
Issued by NWS

Home | Current Version | Previous Version | Text Only | Print | Product List | Glossary Off
Versions: 1 2 3 4 5 6 7 8 9 10 11 12 13 14 15 16 17 18 19 20 21 22 23 24 25 26 27 28 29 30 31 32 33 34 35 36 37 38 39 40 41 42 43 44 45 46 47 48 49 50

000
ASUS43 KFSD 172102
RWRSD

WEATHER ROUNDUP FOR SOUTH DAKOTA
NATIONAL WEATHER SERVICE SIOUX FALLS SD
300 PM CST SAT FEB 17 2018

NOTE: "FAIR" INDICATES FEW OR NO CLOUDS BELOW 12,000 FEET WITH NO
SIGNIFICANT WEATHER AND/OR OBSTRUCTIONS TO VISIBILITY.


SDZ001>005-009-010-012>017-172200-
NORTHWEST AND NORTH CENTRAL SOUTH DAKOTA

CITY           SKY/WX    TMP DP  RH WIND       PRES   REMARKS
BUFFALO          N/A     21  13  71 S8        29.88F WCI  11
FAITH            N/A     21  14  74 NW8       29.98F WCI  11
MOBRIDGE       SUNNY     27  15  61 NW12      29.99S WCI  17
$$

SDZ012>016-024>037-041>051-057-063-072>074-172200-
SOUTHWEST AND SOUTH CENTRAL SOUTH DAKOTA

CITY           SKY/WX    TMP DP  RH WIND       PRES   REMARKS
RAPID CTY ARPT PTSUNNY   29  20  69 NE10      29.95F WCI  20
PIERRE         MOSUNNY   28  21  75 NW15      30.04F WCI  16
CUSTER         MOSUNNY   30  11  45 W13G20    29.85F WCI  20
ELLSWORTH AFB  PTSUNNY   28  21  75 NE7       29.95  WCI  20
PHILIP         CLOUDY    32  22  66 NE5       30.03F WCI  27
PINE RIDGE     SUNNY     38  22  52 VRB3      29.95F
SPEARFISH        N/A     23  19  86 NE9       29.91F WCI  13
WINNER         FAIR      35  24  64 NW13      30.03F WCI  26
$$

SDZ004>011-016>023-039-040-172200-
NORTHEAST SOUTH DAKOTA

CITY           SKY/WX    TMP DP  RH WIND       PRES   REMARKS
ABERDEEN       MOSUNNY   33  14  45 NW17G24   30.02R WCI  22
WATERTOWN      MOSUNNY   32  16  51 W18G32    29.96R WCI  20
BROOKINGS      MOSUNNY   33  21  61 W22       29.98R WCI  21
SISSETON         N/A     33   7  33 NW20G29   29.95R WCI  21
$$

SDZ017-020-022-023-036>040-048>070-172200-
SOUTHEAST SOUTH DAKOTA

CITY           SKY/WX    TMP DP  RH WIND       PRES   REMARKS
SIOUX FALLS    PTSUNNY   33  25  72 NW17G24   30.02R WCI  22
HURON          SUNNY     32  22  66 NW14      30.04S WCI  22
CHAMBERLAIN    MOSUNNY   33  25  73 NW9       30.05F WCI  25
MITCHELL       CLOUDY    31  25  78 W14       30.07R WCI  21
YANKTON        MOSUNNY   34  26  72 NW23      30.05R WCI  22
$$

ABBREVIATIONS USED IN REMARKS
   TC - TEMPERATURE IN CELSIUS
  WCI - WIND CHILL INDEX
   HX - HEAT INDEX
  VSB - VISIBILITY





USA.gov is the U.S. government's official web portal to all federal, state and local government web resources and services.